Find Starlink 5158

NORAD ID: 54055 Int'l Des: 2022-136 Owner: SPXS Country: US Constellation: starlink operational
LEOCIRCULAR

实时位置

正在加载3D地球...

关于 Starlink 5158

正在加载描述...

即将过境

Passes for default location (London). Set your location on the main map for personalized predictions.

高度历史

Loading altitude history...

两行轨道根数

1 54055U 22136E 26121.16534077 .00000555 00000-0 52926-4 0 9991
2 54055 53.2164 108.7144 0001257 65.6675 294.4448 15.08841943194762
Epoch: May 1, 2026 • Age: 14 hours

当前状态

高度 559.1 km
速度 7.58 km/s
星下点 -53.23°S, 117.24°W
发射日期 Oct 20, 2022
运行时间 3.5 years
类型 internet

技术详情

分类 Payload
质量 305.00 kg
干质量 290.00 kg
总质量 305.00 kg
长度 0.20 m
直径 2.80 m
跨度 9.00 m
形状 Box + pan
制造商 SPXS
平台类型 Starlink
阶段状态 In Orbit
所有者/国家 SPXS/US

Most Searched